| time (UTC) | temp F | wind direction | speed MPH | gust MPH | rain 1hr in | rain 24hr in | rain mn in | humidity % | barometer mb |
| 20260903195108 | 62 | 66 | 2.0 | 5.0 | 0.00 | 0.20 | 0.00 | 86 | 1019.2 |
| 20260903194607 | 63 | 79 | 3.0 | 4.0 | 0.00 | 0.20 | 0.00 | 86 | 1019.2 |
| 20260903194107 | 63 | 81 | 1.0 | 3.0 | 0.00 | 0.20 | 0.00 | 86 | 1019.2 |
| 20260903193613 | 63 | 92 | 1.0 | 2.0 | 0.00 | 0.20 | 0.00 | 86 | 1019.2 |
| 20260903193107 | 63 | 112 | 1.0 | 2.0 | 0.00 | 0.20 | 0.00 | 86 | 1019.2 |
| 20260903192610 | 63 | 122 | 1.0 | 3.0 | 0.00 | 0.20 | 0.00 | 86 | 1019.5 |
| 20260903192110 | 63 | 124 | 0.0 | 2.0 | 0.00 | 0.20 | 0.00 | 86 | 1019.5 |
| 20260903191610 | 63 | 175 | 0.0 | 1.0 | 0.00 | 0.20 | 0.00 | 86 | 1019.5 |
| 20260903191107 | 63 | 187 | 0.0 | 2.0 | 0.00 | 0.20 | 0.00 | 86 | 1019.5 |
| 20260903190607 | 63 | 107 | 1.0 | 2.0 | 0.00 | 0.20 | 0.00 | 86 | 1019.2 |
| 20260903190110 | 63 | 136 | 0.0 | 3.0 | 0.00 | 0.20 | 0.00 | 86 | 1019.5 |
| 20260903185613 | 63 | 75 | 2.0 | 3.0 | 0.00 | 0.20 | 0.00 | 86 | 1019.5 |
| 20260903185107 | 63 | 123 | 1.0 | 2.0 | 0.00 | 0.20 | 0.00 | 86 | 1019.5 |
| 20260903184610 | 63 | 183 | 0.0 | 3.0 | 0.00 | 0.20 | 0.00 | 87 | 1019.5 |
| 20260903184107 | 63 | 1 | 1.0 | 5.0 | 0.00 | 0.20 | 0.00 | 86 | 1019.2 |
| 20260903183608 | 63 | 316 | 2.0 | 4.0 | 0.00 | 0.20 | 0.00 | 86 | 1019.5 |
| 20260903183110 | 63 | 105 | 1.0 | 3.0 | 0.00 | 0.20 | 0.00 | 86 | 1019.5 |
| 20260903182607 | 63 | 86 | 1.0 | 3.0 | 0.00 | 0.20 | 0.00 | 86 | 1019.5 |
| 20260903182107 | 63 | 93 | 1.0 | 3.0 | 0.00 | 0.20 | 0.00 | 86 | 1019.2 |
| 20260903181613 | 63 | 137 | 1.0 | 4.0 | 0.00 | 0.20 | 0.00 | 86 | 1019.2 |
| 20260903181111 | 63 | 144 | 0.0 | 3.0 | 0.00 | 0.20 | 0.00 | 86 | 1019.2 |
| 20260903180608 | 63 | 164 | 1.0 | 4.0 | 0.00 | 0.20 | 0.00 | 86 | 1019.2 |
| 20260903180107 | 63 | 150 | 1.0 | 4.0 | 0.00 | 0.20 | 0.00 | 86 | 1019.2 |
| 20260903175607 | 63 | 88 | 2.0 | 4.0 | 0.00 | 0.20 | 0.00 | 86 | 1019.2 |
| 20260903175110 | 63 | 68 | 3.0 | 4.0 | 0.00 | 0.20 | 0.00 | 86 | 1019.2 |
| 20260903174610 | 63 | 65 | 1.0 | 3.0 | 0.00 | 0.20 | 0.00 | 86 | 1019.2 |
| 20260903174107 | 63 | 66 | 1.0 | 2.0 | 0.00 | 0.20 | 0.00 | 85 | 1019.2 |
| 20260903173607 | 63 | 180 | 1.0 | 4.0 | 0.00 | 0.20 | 0.00 | 85 | 1019.2 |
| 20260903173116 | 63 | 165 | 1.0 | 4.0 | 0.00 | 0.20 | 0.00 | 85 | 1019.2 |
| 20260903172607 | 63 | 197 | 1.0 | 5.0 | 0.00 | 0.20 | 0.00 | 85 | 1018.8 |
| 20260903172108 | 63 | 158 | 1.0 | 4.0 | 0.00 | 0.20 | 0.00 | 85 | 1018.8 |
| 20260903171611 | 63 | 97 | 1.0 | 3.0 | 0.00 | 0.20 | 0.00 | 85 | 1019.2 |
| 20260903171107 | 63 | 127 | 1.0 | 2.0 | 0.00 | 0.20 | 0.00 | 85 | 1019.2 |
| 20260903170607 | 63 | 131 | 1.0 | 3.0 | 0.00 | 0.20 | 0.00 | 85 | 1019.2 |
| 20260903170107 | 63 | 165 | 2.0 | 4.0 | 0.00 | 0.20 | 0.00 | 85 | 1019.2 |
| 20260903165610 | 63 | 188 | 1.0 | 3.0 | 0.00 | 0.20 | 0.00 | 85 | 1019.2 |
| 20260903165113 | 63 | 189 | 1.0 | 3.0 | 0.00 | 0.20 | 0.00 | 85 | 1019.5 |
| 20260903164607 | 63 | 164 | 1.0 | 4.0 | 0.00 | 0.20 | 0.00 | 85 | 1019.5 |
| 20260903164114 | 63 | 162 | 2.0 | 4.0 | 0.00 | 0.20 | 0.00 | 85 | 1019.5 |
| 20260903163610 | 63 | 150 | 1.0 | 4.0 | 0.00 | 0.20 | 0.00 | 86 | 1019.5 |
| 20260903163107 | 63 | 189 | 0.0 | 4.0 | 0.00 | 0.20 | 0.00 | 86 | 1019.5 |
| 20260903162607 | 63 | 181 | 2.0 | 4.0 | 0.00 | 0.20 | 0.00 | 85 | 1019.5 |
| 20260903162110 | 63 | 195 | 2.0 | 4.0 | 0.01 | 0.20 | 0.00 | 85 | 1019.5 |
| 20260903161610 | 63 | 152 | 0.0 | 3.0 | 0.01 | 0.20 | 0.00 | 85 | 1019.5 |
| 20260903161110 | 63 | 133 | 2.0 | 4.0 | 0.01 | 0.20 | 0.00 | 84 | 1019.5 |
| 20260903160610 | 63 | 168 | 0.0 | 3.0 | 0.01 | 0.20 | 0.00 | 84 | 1019.8 |
| 20260903160107 | 63 | 140 | 1.0 | 2.0 | 0.01 | 0.20 | 0.00 | 83 | 1019.5 |
| 20260903155607 | 63 | 150 | 1.0 | 2.0 | 0.01 | 0.20 | 0.00 | 84 | 1019.5 |
| 20260903155108 | 63 | 91 | 0.0 | 2.0 | 0.01 | 0.20 | 0.00 | 85 | 1019.8 |
| 20260903154610 | 63 | 212 | 1.0 | 2.0 | 0.01 | 0.20 | 0.00 | 85 | 1019.8 |
| 20260903154113 | 62 | 359 | 1.0 | 3.0 | 0.01 | 0.20 | 0.00 | 84 | 1019.8 |
| 20260903153607 | 62 | 348 | 1.0 | 4.0 | 0.04 | 0.20 | 0.00 | 84 | 1019.8 |
| 20260903153110 | 62 | 9 | 2.0 | 5.0 | 0.07 | 0.20 | 0.00 | 84 | 1019.8 |
| 20260903152611 | 63 | 349 | 2.0 | 5.0 | 0.10 | 0.20 | 0.00 | 83 | 1019.8 |
| 20260903152110 | 63 | 353 | 1.0 | 4.0 | 0.10 | 0.19 | 0.00 | 84 | 1019.8 |
| 20260903151607 | 63 | 357 | 2.0 | 6.0 | 0.11 | 0.19 | 0.00 | 83 | 1019.8 |
| 20260903151110 | 63 | 66 | 2.0 | 6.0 | 0.12 | 0.19 | 0.00 | 83 | 1019.8 |
| 20260903150610 | 63 | 11 | 2.0 | 5.0 | 0.12 | 0.19 | 0.00 | 83 | 1019.8 |
| 20260903150107 | 63 | 333 | 1.0 | 4.0 | 0.12 | 0.18 | 0.00 | 83 | 1019.5 |
| 20260903145610 | 63 | 57 | 2.0 | 4.0 | 0.13 | 0.18 | 0.00 | 82 | 1019.5 |
| 20260903145107 | 63 | 131 | 1.0 | 4.0 | 0.13 | 0.18 | 0.00 | 84 | 1019.5 |
| 20260903144613 | 63 | 185 | 1.0 | 4.0 | 0.13 | 0.18 | 0.00 | 83 | 1019.5 |
| 20260903144113 | 63 | 73 | 1.0 | 3.0 | 0.13 | 0.18 | 0.00 | 82 | 1019.8 |
| 20260903143613 | 64 | 349 | 0.0 | 3.0 | 0.11 | 0.15 | 0.00 | 81 | 1019.8 |
| 20260903143110 | 64 | 220 | 1.0 | 5.0 | 0.08 | 0.12 | 0.00 | 79 | 1020.2 |
| 20260903142607 | 64 | 285 | 1.0 | 4.0 | 0.05 | 0.10 | 0.00 | 79 | 1020.2 |
| 20260903142107 | 65 | 247 | 0.0 | 2.0 | 0.03 | 0.08 | 0.00 | 80 | 1020.2 |
| 20260903141610 | 65 | 311 | 1.0 | 4.0 | 0.03 | 0.07 | 0.00 | 80 | 1020.5 |
| 20260903141110 | 65 | 341 | 0.0 | 3.0 | 0.03 | 0.06 | 0.00 | 79 | 1020.5 |
| 20260903140611 | 65 | 325 | 0.0 | 4.0 | 0.04 | 0.06 | 0.00 | 79 | 1020.2 |
| 20260903140107 | 65 | 286 | 0.0 | 2.0 | 0.03 | 0.06 | 0.00 | 78 | 1020.2 |
| 20260903135607 | 66 | 312 | 0.0 | 2.0 | 0.04 | 0.05 | 0.00 | 76 | 1020.2 |
| 20260903135113 | 66 | 279 | 0.0 | 1.0 | 0.04 | 0.05 | 0.00 | 75 | 1019.8 |
| 20260903134616 | 66 | 322 | 0.0 | 3.0 | 0.04 | 0.05 | 0.00 | 73 | 1020.2 |
| 20260903134116 | 66 | 322 | 1.0 | 2.0 | 0.04 | 0.05 | 0.00 | 73 | 1019.8 |
| 20260903133608 | 66 | 300 | 0.0 | 2.0 | 0.03 | 0.04 | 0.00 | 73 | 1019.8 |
| 20260903133107 | 67 | 314 | 1.0 | 2.0 | 0.04 | 0.04 | 0.00 | 71 | 1019.8 |
| 20260903132613 | 67 | 311 | 0.0 | 2.0 | 0.04 | 0.04 | 0.00 | 72 | 1020.2 |
| 20260903132110 | 67 | 297 | 0.0 | 2.0 | 0.04 | 0.04 | 0.00 | 70 | 1020.2 |
| 20260903131613 | 67 | 324 | 1.0 | 5.0 | 0.04 | 0.04 | 0.00 | 66 | 1020.2 |
| 20260903131107 | 68 | 247 | 2.0 | 7.0 | 0.03 | 0.03 | 0.00 | 65 | 1020.2 |
| 20260903130616 | 68 | 283 | 1.0 | 8.0 | 0.02 | 0.02 | 0.00 | 62 | 1020.2 |
| 20260903130108 | 69 | 285 | 2.0 | 7.0 | 0.02 | 0.02 | 0.00 | 59 | 1020.2 |
| 20260903125610 | 69 | 314 | 2.0 | 12.0 | 0.01 | 0.01 | 0.00 | 57 | 1020.2 |
| 20260903125107 | 70 | 267 | 3.0 | 11.0 | 0.01 | 0.01 | 0.00 | 56 | 1020.2 |
| 20260903124610 | 70 | 272 | 4.0 | 7.0 | 0.00 | 0.00 | 0.00 | 56 | 1020.2 |
| 20260903124108 | 71 | 226 | 1.0 | 4.0 | 0.00 | 0.00 | 0.00 | 60 | 1019.8 |
| 20260903123613 | 71 | 287 | 2.0 | 6.0 | 0.00 | 0.00 | 0.00 | 52 | 1019.8 |
| 20260903123110 | 72 | 276 | 2.0 | 11.0 | 0.00 | 0.00 | 0.00 | 48 | 1019.8 |
| 20260903122607 | 73 | 251 | 1.0 | 5.0 | 0.00 | 0.00 | 0.00 | 45 | 1019.8 |
| 20260903122110 | 73 | 187 | 1.0 | 8.0 | 0.00 | 0.00 | 0.00 | 46 | 1019.5 |
| 20260903121610 | 73 | 234 | 3.0 | 9.0 | 0.00 | 0.00 | 0.00 | 45 | 1019.8 |
| 20260903121113 | 73 | 197 | 1.0 | 10.0 | 0.00 | 0.00 | 0.00 | 45 | 1019.8 |
| 20260903120609 | 73 | 242 | 3.0 | 13.0 | 0.00 | 0.00 | 0.00 | 45 | 1019.8 |
| 20260903120107 | 73 | 255 | 1.0 | 11.0 | 0.00 | 0.00 | 0.00 | 45 | 1019.8 |
| 20260903115610 | 73 | 260 | 4.0 | 11.0 | 0.00 | 0.00 | 0.00 | 43 | 1020.2 |
| 20260903115111 | 73 | 242 | 2.0 | 10.0 | 0.00 | 0.00 | 0.00 | 43 | 1020.2 |
| 20260903114616 | 74 | 195 | 2.0 | 13.0 | 0.00 | 0.00 | 0.00 | 43 | 1020.2 |
| 20260903114111 | 74 | 282 | 5.0 | 13.0 | 0.00 | 0.00 | 0.00 | 40 | 1020.5 |
| 20260903113607 | 76 | 235 | 3.0 | 7.0 | 0.00 | 0.00 | 0.00 | 39 | 1020.5 |
| 20260903113110 | 76 | 246 | 3.0 | 8.0 | 0.00 | 0.00 | 0.00 | 40 | 1020.2 |
| 20260903112614 | 75 | 238 | 2.0 | 8.0 | 0.00 | 0.00 | 0.00 | 41 | 1020.2 |
| 20260903112110 | 74 | 214 | 3.0 | 8.0 | 0.00 | 0.00 | 0.00 | 42 | 1020.5 |
| 20260903111607 | 74 | 263 | 2.0 | 7.0 | 0.00 | 0.00 | 0.00 | 42 | 1020.2 |
| 20260903111110 | 74 | 245 | 2.0 | 8.0 | 0.00 | 0.00 | 0.00 | 42 | 1020.5 |
| 20260903110611 | 74 | 281 | 3.0 | 9.0 | 0.00 | 0.00 | 0.00 | 42 | 1020.5 |
| 20260903110107 | 74 | 217 | 2.0 | 9.0 | 0.00 | 0.00 | 0.00 | 44 | 1020.5 |
| 20260903105607 | 72 | 245 | 2.0 | 8.0 | 0.00 | 0.00 | 0.00 | 45 | 1020.5 |
| 20260903105110 | 72 | 245 | 3.0 | 7.0 | 0.00 | 0.00 | 0.00 | 44 | 1020.5 |
| 20260903104607 | 72 | 223 | 2.0 | 8.0 | 0.00 | 0.00 | 0.00 | 45 | 1020.5 |
| 20260903104113 | 71 | 249 | 3.0 | 9.0 | 0.00 | 0.00 | 0.00 | 45 | 1020.5 |
| 20260903103607 | 71 | 253 | 5.0 | 10.0 | 0.00 | 0.00 | 0.00 | 44 | 1020.5 |
| 20260903103113 | 71 | 258 | 2.0 | 10.0 | 0.00 | 0.00 | 0.00 | 43 | 1020.5 |
| 20260903102607 | 71 | 226 | 3.0 | 12.0 | 0.00 | 0.00 | 0.00 | 43 | 1020.5 |
| 20260903102107 | 72 | 224 | 1.0 | 11.0 | 0.00 | 0.00 | 0.00 | 43 | 1020.9 |
| 20260903101607 | 72 | 259 | 5.0 | 11.0 | 0.00 | 0.00 | 0.00 | 41 | 1020.9 |
| 20260903101110 | 72 | 242 | 4.0 | 10.0 | 0.00 | 0.00 | 0.00 | 42 | 1020.9 |
| 20260903100607 | 72 | 287 | 4.0 | 12.0 | 0.00 | 0.00 | 0.00 | 42 | 1020.9 |
| 20260903100110 | 72 | 261 | 6.0 | 13.0 | 0.00 | 0.00 | 0.00 | 41 | 1020.9 |
| 20260903095610 | 73 | 257 | 3.0 | 10.0 | 0.00 | 0.00 | 0.00 | 41 | 1020.9 |
| 20260903095108 | 73 | 249 | 2.0 | 11.0 | 0.00 | 0.00 | 0.00 | 41 | 1020.9 |
| 20260903094610 | 73 | 252 | 3.0 | 8.0 | 0.00 | 0.00 | 0.00 | 41 | 1020.9 |
| 20260903094113 | 73 | 267 | 1.0 | 10.0 | 0.00 | 0.00 | 0.00 | 42 | 1020.9 |
| 20260903093607 | 72 | 186 | 3.0 | 8.0 | 0.00 | 0.00 | 0.00 | 42 | 1020.9 |
| 20260903093107 | 72 | 241 | 2.0 | 8.0 | 0.00 | 0.00 | 0.00 | 41 | 1020.9 |
| 20260903092609 | 73 | 265 | 2.0 | 7.0 | 0.00 | 0.00 | 0.00 | 41 | 1020.9 |
| 20260903092113 | 73 | 204 | 3.0 | 7.0 | 0.00 | 0.00 | 0.00 | 41 | 1020.5 |
| 20260903091607 | 72 | 265 | 2.0 | 7.0 | 0.00 | 0.00 | 0.00 | 42 | 1020.5 |
| 20260903091107 | 72 | 226 | 1.0 | 8.0 | 0.00 | 0.00 | 0.00 | 43 | 1020.9 |
| 20260903090607 | 72 | 232 | 3.0 | 8.0 | 0.00 | 0.00 | 0.00 | 42 | 1020.9 |
| 20260903090107 | 72 | 240 | 2.0 | 6.0 | 0.00 | 0.00 | 0.00 | 42 | 1020.5 |
| 20260903085611 | 72 | 211 | 2.0 | 5.0 | 0.00 | 0.00 | 0.00 | 43 | 1020.9 |
| 20260903085108 | 70 | 236 | 2.0 | 6.0 | 0.00 | 0.00 | 0.00 | 43 | 1020.9 |
| 20260903084607 | 72 | 216 | 1.0 | 6.0 | 0.00 | 0.00 | 0.00 | 42 | 1020.9 |
| 20260903084111 | 72 | 177 | 2.0 | 5.0 | 0.00 | 0.00 | 0.00 | 41 | 1020.9 |
| 20260903083610 | 72 | 185 | 1.0 | 3.0 | 0.00 | 0.00 | 0.00 | 42 | 1020.9 |
| 20260903083113 | 71 | 267 | 1.0 | 5.0 | 0.00 | 0.00 | 0.00 | 43 | 1020.9 |
| 20260903082613 | 71 | 251 | 1.0 | 4.0 | 0.00 | 0.00 | 0.00 | 43 | 1020.9 |
| 20260903082108 | 70 | 182 | 0.0 | 3.0 | 0.00 | 0.00 | 0.00 | 48 | 1020.9 |
| 20260903081613 | 69 | 223 | 1.0 | 4.0 | 0.00 | 0.00 | 0.00 | 47 | 1020.9 |
| 20260903081107 | 69 | 152 | 1.0 | 2.0 | 0.00 | 0.00 | 0.00 | 49 | 1020.9 |
| 20260903080607 | 67 | 151 | 0.0 | 5.0 | 0.00 | 0.00 | 0.00 | 51 | 1020.9 |
| 20260903080113 | 67 | 182 | 2.0 | 5.0 | 0.00 | 0.00 | 0.00 | 51 | 1020.5 |
| 20260903075607 | 67 | 179 | 3.0 | 7.0 | 0.00 | 0.00 | 0.00 | 50 | 1020.5 |
| 20260903075107 | 67 | 175 | 2.0 | 5.0 | 0.00 | 0.00 | 0.00 | 50 | 1020.5 |
| 20260903074610 | 66 | 190 | 0.0 | 6.0 | 0.00 | 0.00 | 0.00 | 52 | 1020.5 |
| 20260903074113 | 66 | 171 | 1.0 | 5.0 | 0.00 | 0.00 | 0.00 | 53 | 1020.5 |
| 20260903073613 | 67 | 203 | 2.0 | 5.0 | 0.00 | 0.00 | 0.00 | 53 | 1020.5 |
| 20260903073108 | 66 | 162 | 1.0 | 6.0 | 0.00 | 0.00 | 0.00 | 53 | 1020.9 |
| 20260903072610 | 66 | 267 | 0.0 | 5.0 | 0.00 | 0.00 | 0.00 | 54 | 1020.9 |
| 20260903072108 | 66 | 131 | 1.0 | 2.0 | 0.00 | 0.00 | 0.00 | 54 | 1020.9 |
| 20260903071610 | 66 | 163 | 0.0 | 4.0 | 0.00 | 0.00 | 0.00 | 55 | 1020.9 |
| 20260903071113 | 66 | 234 | 1.0 | 3.0 | 0.00 | 0.00 | 0.00 | 55 | 1021.3 |
| 20260903070607 | 65 | 179 | 1.0 | 3.0 | 0.00 | 0.00 | 0.00 | 57 | 1020.9 |
| 20260903070113 | 64 | 174 | 1.0 | 3.0 | 0.00 | 0.00 | 0.00 | 59 | 1020.9 |
| 20260903065607 | 64 | 142 | 0.0 | 2.0 | 0.00 | 0.00 | 0.00 | 63 | 1021.3 |
| 20260903065110 | 63 | 156 | 0.0 | 3.0 | 0.00 | 0.00 | 0.00 | 64 | 1021.3 |
| 20260903064608 | 62 | 95 | 1.0 | 3.0 | 0.00 | 0.00 | 0.00 | 64 | 1021.3 |
| 20260903064107 | 63 | 92 | 1.0 | 3.0 | 0.00 | 0.00 | 0.00 | 64 | 1021.3 |
| 20260903063611 | 63 | 118 | 1.0 | 3.0 | 0.00 | 0.00 | 0.00 | 64 | 1021.3 |
| 20260903063107 | 61 | 131 | 1.0 | 3.0 | 0.00 | 0.00 | 0.00 | 68 | 1021.3 |
| 20260903062607 | 61 | 5 | 1.0 | 3.0 | 0.00 | 0.00 | 0.00 | 67 | 1021.3 |
| 20260903062107 | 61 | 128 | 1.0 | 1.0 | 0.00 | 0.00 | 0.00 | 66 | 1021.3 |
| 20260903061607 | 59 | 98 | 0.0 | 3.0 | 0.00 | 0.00 | 0.00 | 71 | 1021.3 |
| 20260903061107 | 58 | 12 | 1.0 | 2.0 | 0.00 | 0.00 | 0.00 | 73 | 1021.3 |
| 20260903060611 | 58 | 3 | 1.0 | 2.0 | 0.00 | 0.00 | 0.00 | 73 | 1021.3 |
| 20260903060107 | 58 | 287 | 0.0 | 1.0 | 0.00 | 0.00 | 0.00 | 73 | 1021.3 |
| 20260903055607 | 58 | 17 | 0.0 | 1.0 | 0.00 | 0.00 | 0.00 | 73 | 1021.3 |
| 20260903055110 | 57 | 116 | 0.0 | 2.0 | 0.00 | 0.00 | 0.00 | 75 | 1021.3 |
| 20260903054607 | 56 | 62 | 0.0 | 2.0 | 0.00 | 0.00 | 0.00 | 78 | 1021.3 |
| 20260903054107 | 56 | 353 | 0.0 | 2.0 | 0.00 | 0.00 | 0.00 | 78 | 1020.9 |
| 20260903053616 | 56 | 10 | 0.0 | 2.0 | 0.00 | 0.00 | 0.00 | 77 | 1020.9 |
| 20260903053107 | 56 | 104 | 0.0 | 2.0 | 0.00 | 0.00 | 0.00 | 79 | 1020.9 |
| 20260903052610 | 56 | 88 | 0.0 | 2.0 | 0.00 | 0.00 | 0.00 | 80 | 1020.5 |
| 20260903052107 | 55 | 98 | 0.0 | 2.0 | 0.00 | 0.00 | 0.00 | 81 | 1020.5 |
| 20260903051610 | 55 | 135 | 0.0 | 2.0 | 0.00 | 0.00 | 0.00 | 82 | 1020.5 |
| 20260903051107 | 54 | 172 | 1.0 | 3.0 | 0.00 | 0.00 | 0.00 | 82 | 1020.5 |
| 20260903050610 | 54 | 153 | 2.0 | 11.0 | 0.00 | 0.00 | 0.00 | 82 | 1020.5 |
| 20260903050107 | 54 | 165 | 2.0 | 11.0 | 0.00 | 0.00 | 0.00 | 83 | 1020.5 |
| 20260903045611 | 54 | 125 | 1.0 | 2.0 | 0.00 | 0.00 | 0.00 | 83 | 1020.5 |
| 20260903045107 | 54 | 155 | 1.0 | 2.0 | 0.00 | 0.00 | 0.00 | 84 | 1020.5 |
| 20260903044607 | 54 | 147 | 1.0 | 2.0 | 0.00 | 0.00 | 0.00 | 84 | 1020.5 |
| 20260903044107 | 54 | 160 | 0.0 | 1.0 | 0.00 | 0.00 | 0.00 | 84 | 1020.5 |
| 20260903043610 | 54 | 181 | 1.0 | 2.0 | 0.00 | 0.00 | 0.00 | 84 | 1020.5 |
| 20260903043113 | 54 | 181 | 1.0 | 2.0 | 0.00 | 0.00 | 0.00 | 85 | 1020.5 |
| 20260903042613 | 54 | 324 | 0.0 | 2.0 | 0.00 | 0.00 | 0.00 | 85 | 1020.5 |
| 20260903042113 | 54 | 140 | 1.0 | 1.0 | 0.00 | 0.00 | 0.00 | 85 | 1020.5 |
| 20260903041607 | 54 | 105 | 0.0 | 1.0 | 0.00 | 0.00 | 0.00 | 85 | 1020.5 |
| 20260903041110 | 55 | 97 | 0.0 | 2.0 | 0.00 | 0.00 | 0.00 | 85 | 1020.5 |
| 20260903040613 | 55 | 93 | 1.0 | 3.0 | 0.00 | 0.00 | 0.00 | 85 | 1020.5 |
| 20260903040107 | 55 | 73 | 2.0 | 3.0 | 0.00 | 0.00 | 0.00 | 85 | 1020.5 |
| 20260903035607 | 55 | 74 | 0.0 | 2.0 | 0.00 | 0.00 | 0.00 | 85 | 1020.5 |
| 20260903035107 | 55 | 206 | 0.0 | 1.0 | 0.00 | 0.00 | 0.00 | 84 | 1020.5 |
| 20260903034610 | 55 | 263 | 0.0 | 1.0 | 0.00 | 0.00 | 0.00 | 84 | 1020.5 |
| 20260903034107 | 55 | 298 | 0.0 | 1.0 | 0.00 | 0.00 | 0.00 | 84 | 1020.9 |
| 20260903033611 | 55 | 318 | 0.0 | 1.0 | 0.00 | 0.00 | 0.00 | 84 | 1020.5 |
| 20260903033110 | 55 | 286 | 0.0 | 1.0 | 0.00 | 0.00 | 0.00 | 84 | 1020.5 |
| 20260903032607 | 55 | 292 | 0.0 | 1.0 | 0.00 | 0.00 | 0.00 | 84 | 1020.5 |
| 20260903032111 | 55 | 311 | 0.0 | 1.0 | 0.00 | 0.00 | 0.00 | 83 | 1020.5 |
| 20260903031614 | 55 | 311 | 0.0 | 1.0 | 0.00 | 0.00 | 0.00 | 83 | 1020.5 |
| 20260903031107 | 55 | 216 | 0.0 | 1.0 | 0.00 | 0.00 | 0.00 | 83 | 1020.5 |
| 20260903030611 | 55 | 226 | 0.0 | 1.0 | 0.00 | 0.00 | 0.00 | 83 | 1020.5 |
| 20260903030108 | 55 | 297 | 0.0 | 1.0 | 0.00 | 0.00 | 0.00 | 83 | 1020.5 |
| 20260903025607 | 55 | 326 | 0.0 | 1.0 | 0.00 | 0.00 | 0.00 | 83 | 1020.5 |
| 20260903025108 | 56 | 304 | 0.0 | 1.0 | 0.00 | 0.00 | 0.00 | 83 | 1020.5 |
| 20260903024611 | 56 | 274 | 0.0 | 1.0 | 0.00 | 0.00 | 0.00 | 83 | 1020.5 |
| 20260903024107 | 56 | 319 | 0.0 | 1.0 | 0.00 | 0.00 | 0.00 | 83 | 1020.5 |
| 20260903023607 | 56 | 322 | 0.0 | 1.0 | 0.00 | 0.00 | 0.00 | 83 | 1020.5 |
| 20260903023107 | 56 | 319 | 0.0 | 1.0 | 0.00 | 0.00 | 0.00 | 83 | 1020.5 |
| 20260903022610 | 56 | 298 | 1.0 | 2.0 | 0.00 | 0.00 | 0.00 | 84 | 1020.5 |
| 20260903022107 | 56 | 306 | 0.0 | 1.0 | 0.00 | 0.00 | 0.00 | 83 | 1020.5 |
| 20260903021607 | 56 | 322 | 0.0 | 1.0 | 0.00 | 0.00 | 0.00 | 83 | 1020.5 |
| 20260903021110 | 56 | 353 | 0.0 | 1.0 | 0.00 | 0.00 | 0.00 | 83 | 1020.5 |
| 20260903020613 | 56 | 316 | 0.0 | 1.0 | 0.00 | 0.00 | 0.00 | 83 | 1020.5 |
| 20260903020110 | 56 | 320 | 0.0 | 1.0 | 0.00 | 0.00 | 0.00 | 83 | 1020.5 |
| 20260903015610 | 56 | 33 | 0.0 | 0.0 | 0.00 | 0.00 | 0.00 | 82 | 1020.5 |
| 20260903015107 | 56 | 314 | 0.0 | 1.0 | 0.00 | 0.00 | 0.00 | 82 | 1020.5 |
| 20260903014607 | 57 | 308 | 0.0 | 1.0 | 0.00 | 0.00 | 0.00 | 82 | 1020.5 |
| 20260903014107 | 57 | 281 | 0.0 | 1.0 | 0.00 | 0.00 | 0.00 | 81 | 1020.5 |
| 20260903013613 | 57 | 282 | 0.0 | 1.0 | 0.00 | 0.00 | 0.00 | 81 | 1020.5 |
| 20260903013110 | 57 | 288 | 0.0 | 1.0 | 0.00 | 0.00 | 0.00 | 81 | 1020.5 |
| 20260903012613 | 57 | 317 | 0.0 | 1.0 | 0.00 | 0.00 | 0.00 | 80 | 1020.5 |
| 20260903012107 | 58 | 269 | 0.0 | 1.0 | 0.00 | 0.00 | 0.00 | 79 | 1020.5 |
| 20260903011607 | 58 | 304 | 0.0 | 2.0 | 0.00 | 0.00 | 0.00 | 78 | 1020.5 |
| 20260903011110 | 58 | 281 | 0.0 | 2.0 | 0.00 | 0.00 | 0.00 | 78 | 1020.5 |
| 20260903010610 | 58 | 277 | 0.0 | 1.0 | 0.00 | 0.00 | 0.00 | 78 | 1020.5 |
| 20260903010108 | 59 | 267 | 0.0 | 2.0 | 0.00 | 0.00 | 0.00 | 78 | 1020.5 |
| 20260903005607 | 59 | 295 | 1.0 | 2.0 | 0.00 | 0.00 | 0.00 | 77 | 1020.5 |
| 20260903005110 | 59 | 296 | 1.0 | 1.0 | 0.00 | 0.00 | 0.00 | 77 | 1020.5 |
| 20260903004610 | 59 | 296 | 0.0 | 1.0 | 0.00 | 0.00 | 0.00 | 76 | 1020.5 |
| 20260903004107 | 59 | 280 | 0.0 | 1.0 | 0.00 | 0.00 | 0.00 | 76 | 1020.5 |
| 20260903003607 | 60 | 276 | 0.0 | 2.0 | 0.00 | 0.00 | 0.00 | 76 | 1020.5 |
| 20260903003113 | 60 | 313 | 0.0 | 1.0 | 0.00 | 0.00 | 0.00 | 76 | 1020.5 |
| 20260903002610 | 60 | 306 | 0.0 | 1.0 | 0.00 | 0.00 | 0.00 | 76 | 1020.5 |
| 20260903002107 | 60 | 283 | 0.0 | 1.0 | 0.00 | 0.00 | 0.00 | 75 | 1020.5 |
| 20260903001610 | 60 | 293 | 0.0 | 1.0 | 0.00 | 0.00 | 0.00 | 75 | 1020.5 |
| 20260903001107 | 60 | 274 | 0.0 | 1.0 | 0.00 | 0.00 | 0.00 | 74 | 1020.5 |
| 20260903000610 | 60 | 286 | 0.0 | 1.0 | 0.00 | 0.00 | 0.00 | 74 | 1020.5 |
| 20260903000113 | 60 | 286 | 0.0 | 1.0 | 0.00 | 0.00 | 0.00 | 74 | 1020.5 |
| 20260902235607 | 61 | 319 | 0.0 | 1.0 | 0.00 | 0.00 | 0.00 | 74 | 1020.5 |
| 20260902235107 | 61 | 283 | 1.0 | 1.0 | 0.00 | 0.00 | 0.00 | 73 | 1020.5 |
| 20260902234607 | 61 | 293 | 0.0 | 1.0 | 0.00 | 0.00 | 0.00 | 73 | 1020.5 |
| 20260902234113 | 61 | 306 | 0.0 | 2.0 | 0.00 | 0.00 | 0.00 | 72 | 1020.5 |
| 20260902233616 | 61 | 278 | 0.0 | 1.0 | 0.00 | 0.00 | 0.00 | 71 | 1020.5 |
| 20260902233113 | 61 | 315 | 0.0 | 1.0 | 0.00 | 0.00 | 0.00 | 71 | 1020.5 |
| 20260902232610 | 62 | 287 | 0.0 | 1.0 | 0.00 | 0.00 | 0.00 | 71 | 1020.5 |
| 20260902232107 | 62 | 311 | 0.0 | 1.0 | 0.00 | 0.00 | 0.00 | 70 | 1020.5 |
| 20260902231607 | 62 | 265 | 0.0 | 1.0 | 0.00 | 0.00 | 0.00 | 69 | 1020.5 |
| 20260902231107 | 62 | 252 | 0.0 | 1.0 | 0.00 | 0.00 | 0.00 | 69 | 1020.5 |
| 20260902230613 | 62 | 212 | 0.0 | 1.0 | 0.00 | 0.00 | 0.00 | 68 | 1020.5 |
| 20260902230110 | 62 | 310 | 0.0 | 1.0 | 0.00 | 0.00 | 0.00 | 68 | 1020.5 |
| 20260902225610 | 62 | 312 | 0.0 | 1.0 | 0.00 | 0.00 | 0.00 | 67 | 1020.5 |
| 20260902225111 | 62 | 276 | 0.0 | 1.0 | 0.00 | 0.00 | 0.00 | 67 | 1020.5 |
| 20260902224610 | 62 | 319 | 0.0 | 1.0 | 0.00 | 0.00 | 0.00 | 67 | 1020.5 |
| 20260902224116 | 62 | 288 | 0.0 | 1.0 | 0.00 | 0.00 | 0.00 | 67 | 1020.5 |
| 20260902223607 | 62 | 260 | 0.0 | 1.0 | 0.00 | 0.00 | 0.00 | 68 | 1020.5 |
| 20260902223107 | 62 | 253 | 0.0 | 1.0 | 0.00 | 0.00 | 0.00 | 68 | 1020.5 |
| 20260902222607 | 62 | 272 | 0.0 | 1.0 | 0.00 | 0.00 | 0.00 | 67 | 1020.5 |
| 20260902222107 | 62 | 269 | 0.0 | 1.0 | 0.00 | 0.00 | 0.00 | 67 | 1020.5 |
| 20260902221610 | 62 | 230 | 0.0 | 1.0 | 0.00 | 0.00 | 0.00 | 67 | 1020.5 |
| 20260902221113 | 62 | 304 | 0.0 | 1.0 | 0.00 | 0.00 | 0.00 | 67 | 1020.5 |
| 20260902220613 | 62 | 292 | 0.0 | 1.0 | 0.00 | 0.00 | 0.00 | 67 | 1020.5 |
| 20260902220113 | 62 | 280 | 0.0 | 1.0 | 0.00 | 0.00 | 0.00 | 67 | 1020.5 |
| 20260902215610 | 62 | 308 | 0.0 | 1.0 | 0.00 | 0.00 | 0.00 | 66 | 1020.5 |
| 20260902215107 | 62 | 204 | 0.0 | 1.0 | 0.00 | 0.00 | 0.00 | 68 | 1020.5 |
| 20260902214607 | 62 | 320 | 0.0 | 2.0 | 0.00 | 0.00 | 0.00 | 68 | 1020.5 |
| 20260902214107 | 62 | 310 | 1.0 | 2.0 | 0.00 | 0.00 | 0.00 | 69 | 1020.5 |
| 20260902213613 | 62 | 313 | 0.0 | 2.0 | 0.00 | 0.00 | 0.00 | 68 | 1020.5 |
| 20260902213113 | 62 | 307 | 0.0 | 1.0 | 0.00 | 0.00 | 0.00 | 69 | 1020.5 |
| 20260902212613 | 63 | 290 | 0.0 | 1.0 | 0.00 | 0.00 | 0.00 | 67 | 1020.5 |
| 20260902212107 | 63 | 261 | 0.0 | 1.0 | 0.00 | 0.00 | 0.00 | 67 | 1020.5 |
| 20260902211610 | 63 | 294 | 1.0 | 2.0 | 0.00 | 0.00 | 0.00 | 66 | 1020.5 |
| 20260902211110 | 63 | 248 | 1.0 | 2.0 | 0.00 | 0.00 | 0.00 | 66 | 1020.5 |
| 20260902210607 | 63 | 174 | 0.0 | 1.0 | 0.00 | 0.00 | 0.00 | 66 | 1020.2 |
| 20260902210113 | 63 | 214 | 0.0 | 2.0 | 0.00 | 0.00 | 0.00 | 66 | 1020.2 |
| 20260902205616 | 63 | 196 | 0.0 | 1.0 | 0.00 | 0.00 | 0.00 | 66 | 1020.2 |
| 20260902205110 | 63 | 197 | 0.0 | 1.0 | 0.00 | 0.00 | 0.00 | 66 | 1020.2 |
| 20260902204613 | 63 | 205 | 0.0 | 2.0 | 0.00 | 0.00 | 0.00 | 65 | 1020.2 |
| 20260902204107 | 63 | 270 | 1.0 | 1.0 | 0.00 | 0.00 | 0.00 | 65 | 1020.2 |
| 20260902203607 | 63 | 287 | 0.0 | 1.0 | 0.00 | 0.00 | 0.00 | 65 | 1020.2 |
| 20260902203107 | 64 | 332 | 0.0 | 1.0 | 0.00 | 0.00 | 0.00 | 65 | 1020.2 |
| 20260902202607 | 64 | 202 | 0.0 | 1.0 | 0.00 | 0.00 | 0.00 | 64 | 1020.2 |
| 20260902202110 | 64 | 196 | 0.0 | 2.0 | 0.00 | 0.00 | 0.00 | 64 | 1020.2 |
| 20260902201607 | 64 | 200 | 1.0 | 2.0 | 0.00 | 0.00 | 0.00 | 64 | 1020.2 |
| 20260902201113 | 64 | 160 | 0.0 | 1.0 | 0.00 | 0.00 | 0.00 | 66 | 1020.2 |
| 20260902200610 | 64 | 220 | 0.0 | 0.0 | 0.00 | 0.00 | 0.00 | 66 | 1020.2 |
| 20260902200110 | 64 | 227 | 0.0 | 1.0 | 0.00 | 0.00 | 0.00 | 66 | 1020.2 |
| 20260902195607 | 64 | 292 | 0.0 | 1.0 | 0.00 | 0.00 | 0.00 | 65 | 1020.2 |